#timestamp,LO_Frequency,Hit,StdDev 
1536850815.3,286047000.2,N
1536850835.1,286047001.0,N
1536850855.9,286047000.2,N
1536850875.7,286047000.7,N
1536850895.5,286047002.4,N
1536850915.4,286047001.6,N
1536850935.2,286047001.8,N
1536850955.1,286047000.1,N
1536850956.0,286047000.1,N
1536850975.8,286046999.9,N
1536850995.6,286047001.0,N
1536851015.5,286047000.6,N
1536851065.3,286047000.2,E
1536851075.3,286047000.5,N
1536851095.1,286046998.5,P
1536851096.0,286046998.5,N
1536851115.8,286046998.3,N
1536851135.7,286046999.2,N
1536851155.5,286046998.4,N
1536851175.3,286047000.8,N
1536851195.2,286046998.2,N
1536851215.0,286047000.4,N
1536851215.9,286047000.4,N
1536851235.8,286047000.2,N
1536851255.6,286047001.5,N
1536851275.4,286047001.3,N
1536851295.3,286046999.9,N
1536851315.1,286047000.2,N
1536851335.9,286047001.1,N
1536851355.7,286047000.8,N
1536851375.5,286047000.2,N
1536851395.4,286046999.8,N
1536851415.2,286047000.1,N
1536851435.0,286047000.4,N
1536851435.9,286047000.4,N
1536851455.8,286046999.7,N
1536851475.6,286046999.7,N
1536851495.5,286047000.5,N
1536851515.3,286047000.5,N
1536851535.1,286046999.7,N
1536851555.9,286047000.2,N
1536851575.7,286047002.5,N
1536851595.6,286047003.8,Y
1536851615.4,286047003.7,P
1536851635.2,286047004.1,N
1536851655.1,286047003.5,N
1536851656.0,286047003.5,N
1536851675.8,286047003.6,N
1536851695.6,286047001.7,N
1536851715.5,286047001.8,N
1536851735.3,286047001.4,N
1536851755.2,286047002.8,N
1536851775.9,286047003.9,Y
1536851795.7,286047002.8,P
1536851815.6,286047002.2,P
1536851835.4,286047001.5,P
1536851855.2,286047001.4,N
1536851875.1,286047003.7,Y
1536851876.0,286047003.7,P
1536851895.8,286047002.6,P
1536851915.7,286047002.4,P
1536851935.5,286047000.9,N
1536851955.3,286046999.8,N
1536851975.2,286047002.2,N
1536851995.0,286047000.1,N
1536851995.9,286047000.1,N
1536852015.8,286047001.4,N
1536852035.6,286047004.3,Y
1536852055.4,286047002.5,P
1536852075.3,286046998.2,P
1536852095.1,286046999.2,N
1536852115.8,286046998.9,N
1536852135.7,286046998.5,N
1536852155.5,286047001.1,N
1536852175.4,286046999.7,N
1536852195.2,286047001.5,N
1536852215.0,286047002.6,N
1536852215.9,286047002.6,N
1536852235.8,286047001.4,N
1536852255.6,286047004.0,N
1536852275.4,286047004.0,N
1536852295.3,286047004.4,N
1536852315.1,286047006.0,Y
1536852335.9,286047004.6,P
1536852355.7,286047003.3,N
1536852375.5,286047002.5,N
1536852395.4,286047002.3,N
1536852415.2,286047002.0,N
1536852435.0,286047004.0,Y
1536852435.9,286047004.0,P
1536852455.8,286046998.2,N
1536852475.6,286046998.7,N
1536852495.5,286046999.2,N
1536852515.3,286046997.3,N
1536852535.1,286046998.4,N
1536852555.9,286046999.1,N
1536852575.7,286046997.1,N
1536852595.5,286046997.6,N
1536852615.4,286046996.7,N
1536852635.2,286046998.9,N
1536852655.1,286046998.7,N
1536852656.0,286046998.7,N
1536852675.8,286046997.3,N
1536852695.6,286046996.9,N
1536852715.5,286046997.0,N
1536852735.3,286046996.8,N
1536852755.1,286046997.7,N
1536852775.9,286046997.0,N
1536852795.7,286046999.5,N
1536852815.6,286046999.4,N
1536852835.4,286047001.2,N
1536852855.2,286046999.2,N
1536852875.1,286047000.1,N
1536852876.0,286047000.1,N
1536852895.8,286047001.9,N
1536852915.6,286047004.1,N
1536852935.5,286047003.4,N
1536852955.3,286047003.7,N
1536852975.1,286047001.4,N
1536852995.9,286047001.5,N
1536853015.7,286047004.1,N
1536853035.6,286047003.4,N
1536853055.4,286047004.5,N
1536853075.2,286047006.6,N
1536853095.1,286047005.2,N
1536853096.0,286047005.2,N
1536853115.8,286047004.3,N
1536853135.7,286046999.7,N
1536853155.5,286047002.3,N
1536853175.3,286047004.2,N
1536853195.2,286047004.0,N
1536853215.9,286047005.2,N
1536853235.7,286047001.4,N
1536853255.6,286047002.7,N
1536853275.4,286047000.7,N
1536853295.2,286046998.4,N
1536853315.1,286046999.7,N
1536853316.0,286046999.7,N
1536853335.8,286047001.8,N
1536853355.7,286047006.0,N
1536853375.5,286047001.7,N
1536853395.3,286047003.0,N
1536853415.2,286047003.0,N
1536853435.0,286047005.4,N
1536853435.9,286047005.4,N
1536853455.7,286047003.4,N
1536853475.6,286047003.5,N
1536853495.4,286047005.2,N
1536853515.3,286047001.9,N
1536853535.1,286047004.3,N
1536853536.0,286047004.3,N
1536853555.8,286047002.2,N
1536853575.7,286047001.5,N
1536853595.5,286047005.7,N
1536853615.3,286047003.3,N
1536853635.2,286047007.6,Y
1536853655.0,286047001.7,P
1536853655.9,286047001.7,N
1536853675.8,286047002.6,P
1536853695.6,286046998.4,N
1536853715.4,286046999.7,N
1536853735.3,286047002.4,N
1536853755.1,286047001.1,N
1536853775.9,286047001.7,N
1536853795.7,286047002.3,N
1536853815.5,286047000.3,N
1536853835.4,286047000.1,N
1536853855.2,286047000.0,N
1536853875.0,286047000.4,N
1536853876.0,286047000.4,N
1536853895.8,286046999.6,N
1536853915.6,286046994.9,Y
1536853935.5,286046996.2,P
1536853955.3,286046997.3,N
1536853975.1,286046997.0,N
1536853995.9,286046996.7,N
1536854015.7,286046998.3,N
1536854035.6,286047000.6,N
1536854055.4,286046999.7,N
1536854075.2,286047000.4,N
1536854095.1,286047000.7,N
1536854096.0,286047000.7,N
1536854115.8,286046999.6,N
1536854135.6,286047001.2,N
1536854155.5,286046998.4,N
1536854175.3,286047000.7,N
1536854195.1,286046999.0,N
1536854215.9,286046999.3,N
1536854235.7,286046996.7,N
1536854255.6,286046999.1,N
1536854275.4,286046998.3,N
1536854295.2,286047000.6,N
1536854315.1,286046996.6,N
1536854316.0,286046996.6,N
1536854335.8,286046996.6,N
1536854355.6,286046998.7,N
1536854375.5,286046999.0,N
1536854395.3,286046999.3,N
